When you browse on this site, cookies collect data to enhance your experience and personalize the content and advertising you see.
Visit our Privacy Policy to learn more. By continuing to use the site, you agree to this use of cookies and data.
  • în România
  • Lista ţărilor
  • Pe 7 zile
  • Temperatura apei
  • Hartă satelitară
  • Meteo pe hartă
  • Widget-uri
  • user-avatar
    Intrare

    Meteo pe oră la Bolshaya Fedorovka

    Astăzi, 21 Mai, Marţi

    Timp Temperatura Precipitaţii Vânt Presiune Umiditate
    00:00 +3°C° 0 mm 3 m/s 757 mmHg 78%
    01:00 +3°C° 0 mm 3 m/s 757 mmHg 79%
    02:00 +3°C° 0 mm 3 m/s 757 mmHg 81%
    03:00 +3°C° 0 mm 3 m/s 757 mmHg 87%
    04:00 +4°C° 0 mm 3 m/s 758 mmHg 84%
    05:00 +5°C° 0 mm 3 m/s 758 mmHg 80%
    06:00 +6°C° 0 mm 4 m/s 758 mmHg 77%
    07:00 +8°C° 0 mm 4 m/s 758 mmHg 68%
    08:00 +10°C° 0 mm 5 m/s 758 mmHg 59%
    09:00 +11°C° 0 mm 6 m/s 758 mmHg 49%
    10:00 +13°C° 0 mm 5 m/s 758 mmHg 48%
    11:00 +13°C° 0 mm 5 m/s 758 mmHg 46%
    12:00 +14°C° 0 mm 5 m/s 758 mmHg 44%
    13:00 +14°C° 0 mm 5 m/s 758 mmHg 45%
    14:00 +14°C° 0 mm 5 m/s 758 mmHg 46%
    15:00 +14°C° 0 mm 4 m/s 757 mmHg 49%
    16:00 +14°C° 0 mm 4 m/s 757 mmHg 54%
    17:00 +14°C° 0 mm 3 m/s 757 mmHg 58%
    18:00 +14°C° 0 mm 2 m/s 757 mmHg 63%
    19:00 +13°C° 0 mm 2 m/s 757 mmHg 65%
    20:00 +12°C° 0 mm 2 m/s 757 mmHg 67%
    21:00 +9°C° 0 mm 2 m/s 757 mmHg 69%
    22:00 +9°C° 0 mm 2 m/s 757 mmHg 69%
    23:00 +8°C° 0 mm 2 m/s 757 mmHg 69%

    Mâine, 22 Mai, Miercuri

    Timp Temperatura Precipitaţii Vânt Presiune Umiditate
    00:00 +8°C° 0 mm 2 m/s 757 mmHg 70%
    01:00 +8°C° 0 mm 2 m/s 757 mmHg 71%
    02:00 +8°C° 0 mm 2 m/s 757 mmHg 73%
    03:00 +7°C° 0 mm 2 m/s 757 mmHg 74%
    04:00 +9°C° 0 mm 2 m/s 757 mmHg 73%
    05:00 +10°C° 0 mm 2 m/s 757 mmHg 71%
    06:00 +12°C° 0 mm 2 m/s 757 mmHg 69%
    07:00 +12°C° 0.4 mm 2 m/s 756 mmHg 72%
    08:00 +12°C° 0.4 mm 2 m/s 756 mmHg 76%
    09:00 +13°C° 0.4 mm 2 m/s 756 mmHg 79%
    10:00 +12°C° 1.3 mm 2 m/s 755 mmHg 82%
    11:00 +12°C° 1.3 mm 2 m/s 755 mmHg 85%
    12:00 +12°C° 1.3 mm 2 m/s 755 mmHg 88%
    13:00 +11°C° 0.5 mm 3 m/s 755 mmHg 87%
    14:00 +12°C° 0.5 mm 3 m/s 754 mmHg 86%
    15:00 +12°C° 0.5 mm 3 m/s 754 mmHg 86%
    16:00 +12°C° 0.4 mm 3 m/s 753 mmHg 87%
    17:00 +13°C° 0.4 mm 3 m/s 753 mmHg 89%
    18:00 +13°C° 0.4 mm 4 m/s 753 mmHg 90%
    19:00 +13°C° 0.9 mm 3 m/s 752 mmHg 91%
    20:00 +13°C° 0.9 mm 3 m/s 752 mmHg 93%
    21:00 +13°C° 0.9 mm 3 m/s 752 mmHg 94%
    22:00 +13°C° 0.1 mm 3 m/s 752 mmHg 93%
    23:00 +13°C° 0.1 mm 3 m/s 751 mmHg 92%

    Poimâine, 23 Mai, Joi

    Timp Temperatura Precipitaţii Vânt Presiune Umiditate
    00:00 +13°C° 0.1 mm 3 m/s 751 mmHg 91%
    01:00 +13°C° 0 mm 4 m/s 751 mmHg 91%
    02:00 +12°C° 0 mm 4 m/s 751 mmHg 91%
    03:00 +12°C° 0 mm 5 m/s 751 mmHg 91%
    04:00 +13°C° 0 mm 5 m/s 750 mmHg 89%
    05:00 +14°C° 0 mm 5 m/s 750 mmHg 86%
    06:00 +14°C° 0 mm 6 m/s 750 mmHg 84%
    07:00 +16°C° 0 mm 6 m/s 750 mmHg 76%
    08:00 +17°C° 0 mm 7 m/s 750 mmHg 68%
    09:00 +20°C° 0 mm 7 m/s 749 mmHg 60%
    10:00 +20°C° 0 mm 8 m/s 749 mmHg 57%
    11:00 +21°C° 0 mm 8 m/s 749 mmHg 54%
    12:00 +21°C° 0 mm 8 m/s 749 mmHg 51%
    13:00 +22°C° 0 mm 8 m/s 748 mmHg 50%
    14:00 +22°C° 0 mm 8 m/s 748 mmHg 50%
    15:00 +22°C° 0 mm 8 m/s 748 mmHg 49%
    16:00 +21°C° 0 mm 6 m/s 748 mmHg 55%
    17:00 +20°C° 0 mm 5 m/s 747 mmHg 61%
    18:00 +19°C° 0 mm 4 m/s 747 mmHg 68%
    19:00 +18°C° 0.4 mm 3 m/s 747 mmHg 73%
    20:00 +17°C° 0.4 mm 2 m/s 747 mmHg 79%
    21:00 +16°C° 0.4 mm 2 m/s 747 mmHg 85%
    22:00 +15°C° 1.8 mm 2 m/s 747 mmHg 88%
    23:00 +15°C° 1.8 mm 2 m/s 747 mmHg 92%

    24 Mai, Vineri

    Timp Temperatura Precipitaţii Vânt Presiune Umiditate
    00:00 +14°C° 1.8 mm 3 m/s 747 mmHg 95%
    01:00 +13°C° 1.5 mm 3 m/s 747 mmHg 93%
    02:00 +12°C° 1.5 mm 4 m/s 747 mmHg 92%
    03:00 +12°C° 1.5 mm 5 m/s 747 mmHg 91%
    04:00 +10°C° 0 mm 5 m/s 748 mmHg 89%
    05:00 +10°C° 0 mm 5 m/s 749 mmHg 88%
    06:00 +10°C° 0 mm 5 m/s 749 mmHg 87%
    07:00 +10°C° 0 mm 5 m/s 750 mmHg 79%
    08:00 +12°C° 0 mm 5 m/s 750 mmHg 72%
    09:00 +12°C° 0 mm 5 m/s 751 mmHg 64%
    10:00 +13°C° 0 mm 5 m/s 751 mmHg 60%
    11:00 +13°C° 0 mm 5 m/s 751 mmHg 56%
    12:00 +14°C° 0 mm 5 m/s 752 mmHg 52%
    13:00 +14°C° 0 mm 5 m/s 752 mmHg 52%
    14:00 +14°C° 0 mm 5 m/s 752 mmHg 52%
    15:00 +14°C° 0 mm 5 m/s 753 mmHg 52%
    16:00 +14°C° 0 mm 4 m/s 753 mmHg 56%
    17:00 +13°C° 0 mm 4 m/s 753 mmHg 60%
    18:00 +12°C° 0 mm 3 m/s 754 mmHg 63%
    19:00 +11°C° 0 mm 3 m/s 754 mmHg 65%
    20:00 +9°C° 0 mm 2 m/s 755 mmHg 67%
    21:00 +8°C° 0 mm 2 m/s 755 mmHg 69%
    22:00 +8°C° 0 mm 2 m/s 755 mmHg 70%
    23:00 +8°C° 0 mm 1 m/s 756 mmHg 71%

    25 Mai, Sâmbătă

    Timp Temperatura Precipitaţii Vânt Presiune Umiditate
    00:00 +8°C° 0 mm 1 m/s 756 mmHg 71%
    01:00 +7°C° 0 mm 1 m/s 756 mmHg 72%
    02:00 +7°C° 0 mm 1 m/s 757 mmHg 72%
    03:00 +7°C° 0 mm 1 m/s 757 mmHg 72%
    04:00 +8°C° 0 mm 1 m/s 757 mmHg 69%
    05:00 +9°C° 0 mm 1 m/s 757 mmHg 66%
    06:00 +10°C° 0 mm 1 m/s 758 mmHg 63%
    07:00 +11°C° 0 mm 1 m/s 758 mmHg 57%
    08:00 +13°C° 0 mm 2 m/s 758 mmHg 52%
    09:00 +13°C° 0 mm 3 m/s 758 mmHg 46%
    10:00 +14°C° 0 mm 3 m/s 758 mmHg 45%
    11:00 +16°C° 0 mm 3 m/s 757 mmHg 44%
    12:00 +17°C° 0 mm 3 m/s 757 mmHg 43%
    13:00 +17°C° 0 mm 3 m/s 757 mmHg 44%
    14:00 +17°C° 0 mm 3 m/s 756 mmHg 45%
    15:00 +18°C° 0 mm 4 m/s 756 mmHg 45%
    16:00 +17°C° 0 mm 3 m/s 756 mmHg 51%
    17:00 +17°C° 0 mm 3 m/s 755 mmHg 57%
    18:00 +17°C° 0 mm 3 m/s 755 mmHg 63%
    19:00 +14°C° 0 mm 3 m/s 755 mmHg 65%
    20:00 +13°C° 0 mm 4 m/s 755 mmHg 66%
    21:00 +12°C° 0 mm 4 m/s 755 mmHg 68%
    22:00 +11°C° 0 mm 4 m/s 754 mmHg 67%
    23:00 +10°C° 0 mm 5 m/s 754 mmHg 66%

    26 Mai, Duminică

    Timp Temperatura Precipitaţii Vânt Presiune Umiditate
    00:00 +10°C° 0 mm 5 m/s 754 mmHg 64%
    01:00 +10°C° 0 mm 5 m/s 754 mmHg 62%
    02:00 +10°C° 0 mm 5 m/s 753 mmHg 61%
    03:00 +10°C° 0 mm 6 m/s 753 mmHg 59%
    04:00 +10°C° 0 mm 6 m/s 753 mmHg 60%
    05:00 +11°C° 0 mm 6 m/s 752 mmHg 62%
    06:00 +11°C° 0 mm 7 m/s 752 mmHg 64%
    07:00 +14°C° 0 mm 7 m/s 752 mmHg 62%
    08:00 +15°C° 0 mm 7 m/s 751 mmHg 61%
    09:00 +17°C° 0 mm 7 m/s 751 mmHg 59%
    10:00 +18°C° 0 mm 7 m/s 750 mmHg 59%
    11:00 +20°C° 0 mm 7 m/s 750 mmHg 59%
    12:00 +21°C° 0 mm 7 m/s 750 mmHg 59%
    13:00 +21°C° 0 mm 7 m/s 749 mmHg 63%
    14:00 +21°C° 0 mm 8 m/s 749 mmHg 66%
    15:00 +21°C° 0 mm 8 m/s 748 mmHg 70%
    16:00 +20°C° 0 mm 7 m/s 748 mmHg 71%
    17:00 +20°C° 0 mm 6 m/s 747 mmHg 73%
    18:00 +20°C° 0 mm 5 m/s 746 mmHg 74%
    19:00 +19°C° 0.1 mm 5 m/s 746 mmHg 74%
    20:00 +19°C° 0.1 mm 6 m/s 746 mmHg 75%
    21:00 +17°C° 0.1 mm 6 m/s 745 mmHg 75%
    22:00 +17°C° 0.5 mm 6 m/s 745 mmHg 77%
    23:00 +17°C° 0.5 mm 6 m/s 745 mmHg 79%
    Arată mai mult